Location: Bermeries
(50.2863°N, 3.7551°E)
Time: 13:38:38
(UTC+00:00)

Geosat - Pass Details

Date: 23 May 2024
Orbit: 760 x 763 km, 108.1° (Epoch: 18 June)

Event Time Altitude Azimuth Distance (km) Brightness Sun altitude
Rises 02:25:05 0° 140° (SE) 3,214 7.1 -10.4°
Reaches altitude 10° 02:27:21 10° 138° (SE) 2,292 6.4 -10.2°
Maximum altitude 02:32:19 69° 56° (NE) 819 4.4 -9.7°
Drops below altitude 10° 02:37:18 10° 334° (NNW) 2,309 6.8 -9.2°
Sets 02:39:36 0° 332° (NNW) 3,239 7.5 -8.9°
